Skip Page Navigation
NASA JPL Caltech
NASA Logo - Jet Propulsion Laboratory + View the NASA Portal
+ Center for Near-Earth Object Studies
JPL Home Earth Solar System Stars & Galaxies Technology
JPL Solar System Dynamics
BODIES ORBITS EPHEMERIDES TOOLS PHYSICAL DATA DISCOVERY FAQ SITE MAP
JPL Small-Body Database Browser
Search: [ help ]  
794 Irenaea (A914 QB)
Classification: Main-belt Asteroid          SPK-ID: 2000794
Ephemeris | Orbit Diagram | Orbital Elements | Mission Design | Physical Parameters | Discovery Circumstances | Close-Approach Data ]

[ hide orbit diagram ]

For accurate long-term ephemerides, please instead use our Horizons system.This orbit viewer was implemented using two-body methods, and hence should not be used for determining accurate long-term trajectories (over several years or decades) or planetary encounter circumstances.


Orbital Elements at Epoch 2459200.5 (2020-Dec-17.0) TDB
Reference: JPL 38 (heliocentric ecliptic J2000)
 Element Value Uncertainty (1-sigma)   Units 
e .2964388248469104 2.542e-08  
a 3.127825733724937 1.0455e-08 au
q 2.200616748893592 7.945e-08 au
i 5.419295067062951 3.6737e-06 deg
node 160.402818517101 3.3968e-05 deg
peri 131.2787677035879 3.4483e-05 deg
M 66.80266411685783 6.5288e-06 deg
tp 2458825.567116943362
(2019-Dec-08.06711694)
3.5921e-05 TDB
period 2020.515793565905
5.53
1.0131e-05
2.774e-08
d
yr
n .1781723266635072 8.9333e-10 deg/d
Q 4.055034718556284 1.3554e-08 au
  Orbit Determination Parameters
   # obs. used (total)      3458  
   data-arc span      30825 days (84.39 yr)  
   first obs. used      1936-08-25  
   last obs. used      2021-01-16  
   planetary ephem.      DE431  
   SB-pert. ephem.      SB431-N16  
   condition code      0  
   norm. resid. RMS      .43789  
   source      ORB  
   producer      Otto Matic  
   solution date      2021-Feb-24 00:49:52  

Additional Information
 Earth MOID = 1.1872 au 
 Jupiter MOID = 1.21659 au 
 T_jup = 3.138 
[ show covariance matrix ]

Ephemeris | Orbit Diagram | Orbital Elements | Mission Design | Physical Parameters | Discovery Circumstances | Close-Approach Data ]

Physical Parameter Table
Parameter Symbol Value Units Sigma Reference Notes
absolute magnitude H 11.41   n/a E2021B10  
diameter diameter 35.703 km 6.145 urn:nasa:pds:neowise_diameters_albedos::2.0[mainbelt] (http://adsabs.harvard.edu/abs/2012ApJ...759L...8M)  
rotation period rot_per 9.14 h n/a LCDB (Rev. 2020-October); Warner et al., 2009 Published Reference List:
[Behrend, R. (2008) Observatoire de Geneve web site, http://obswww.unige.ch/~behrend/page_cou.html]
geometric albedo albedo 0.046   0.016 urn:nasa:pds:neowise_diameters_albedos::2.0[mainbelt] (http://adsabs.harvard.edu/abs/2015ApJ...814..117N)  

794 Irenaea (A914 QB)          Discovered 1914-Aug-27 by Palisa, J. at Vienna
Reference: DISCOVERY.DBLast Updated: 2003-08-29

[ show close-approach data ]
Alternate Designations
 A914 QB = 1930 KH = 1936 QK = 1947 QD = 1953 TT2 
Ephemeris | Orbit Diagram | Orbital Elements | Mission Design | Physical Parameters | Discovery Circumstances | Close-Approach Data ]
ABOUT SSD CREDITS/AWARDS PRIVACY/COPYRIGHT GLOSSARY LINKS
FirstGov 2021-Feb-24 17:46 UT
(server date/time)  
NASA Home Page
Site Manager:   Ryan S. Park
Webmaster  Alan B. Chamberlin